KOREASAT 7

Last updated on Tue Sep 22 2026 00:03:14 GMT+0000 (Coordinated Universal Time)

1 42691U 17023A 26264.44079712 -.00000366 00000+0 00000+0 0 9993 2 42691 0.0347 51.2568 0000957 149.2144 74.4478 1.00271452 34330
UTC large
Height (km)
Speed (km/s)
/
Latitude / Longitude
Inclination (degrees)
Orbital Period (minutes)
Azimuth
Elevation
Range (km)
Doppler Factor

Next 0 passes for location: London (51.5072 / 0.1276)

No passes found over London.
KOREASAT 7